Curtin, Australia

4:05 AM AWST on July 24, 2017 (GMT +0800)
Curtin

Weather History for YCIN - September, 2012

Change the Weather History Date:

Friday, September 7, 2012

  Actual Average Record
Temperature  
Mean Temperature 83 °F -  
Max Temperature 99 °F - - ()
Min Temperature 67 °F - - ()
Cooling Degree Days 18    
Growing Degree Days 33 (Base 50)    
Moisture  
Dew Point 32 °F    
Average Humidity 16    
Maximum Humidity 31    
Minimum Humidity 4    
Precipitation  
Precipitation 0.00 in - - ()
Sea Level Pressure  
Sea Level Pressure 29.93 in    
Wind  
Wind Speed 8 mph ()    
Max Wind Speed 15 mph    
Max Gust Speed -    
T = Trace of Precipitation, MM = Missing Value Source: Averaged Metar Reports

Daily Weather History Graph

Daily Weather History Graph

Search for Another Location

Airport or City:

Trip Planner

Search our weather history database for the weather conditions in past years. The results will help you decide how hot, cold, wet, or windy it might be!

Date:

Astronomy

Sep. 07, 2012 Rise Set
Actual Time 5:46 AM AWST 5:38 PM AWST
Civil Twilight 5:25 AM AWST 6:00 PM AWST
Nautical Twilight 4:59 AM AWST 6:25 PM AWST
Astronomical Twilight 4:34 AM AWST 6:50 PM AWST
Moon 11:18 PM AWST (9/7) 9:58 AM AWST (9/7)
Length of Visible Light 12h 35m
Length of Day
11h 51m
Waning Gibbous, 63% of the Moon is Illuminated
Sep 7
Waning Gibbous
Sep 8
Last Quarter
Sep 16
New
Sep 23
First Quarter
Sep 30
Full

Hourly Weather History & Observations

Time (AWST) Temp. Dew Point Humidity Pressure Visibility Wind Dir Wind Speed Gust Speed Precip Events Conditions
12:00 AM 71 °F 39 °F 21% 29.92 in - South 6.9 mph - -  
12:00 AM 71.6 °F 39.2 °F 31% 29.92 in - South 6.9 mph - N/A   Unknown
1:00 AM 73.4 °F 37.4 °F 27% 29.92 in - South 8.1 mph - N/A   Unknown
2:00 AM 71.6 °F 37.4 °F 29% 29.92 in - SSE 6.9 mph - N/A   Unknown
3:00 AM 74 °F 34 °F 13% 29.92 in - SE 9.2 mph - -  
3:00 AM 73.4 °F 33.8 °F 23% 29.92 in - SE 9.2 mph - N/A   Unknown
4:00 AM 71.6 °F 32.0 °F 23% 29.92 in - ESE 8.1 mph - N/A   Unknown
5:00 AM 68.0 °F 33.8 °F 28% 29.95 in - SE 6.9 mph - N/A   Unknown
6:00 AM 67 °F 33 °F 18% 29.97 in - ESE 9.2 mph - -  
6:00 AM 68.0 °F 33.8 °F 28% 29.98 in - ESE 9.2 mph - N/A   Unknown
7:00 AM 75.2 °F 30.2 °F 19% 29.98 in - ESE 11.5 mph - N/A   Unknown
8:00 AM 80.6 °F 30.2 °F 16% 30.01 in - ESE 12.7 mph - N/A   Unknown
9:00 AM 85 °F 27 °F 6% 30.00 in - ESE 13.8 mph - -  
9:00 AM 86.0 °F 26.6 °F 12% 30.01 in - ESE 13.8 mph - N/A   Unknown
10:00 AM 89.6 °F 26.6 °F 10% 30.01 in - ESE 15.0 mph - N/A   Unknown
11:00 AM 93.2 °F 26.6 °F 9% 29.98 in - ESE 12.7 mph - N/A   Unknown
12:00 PM 96.8 °F 28.4 °F 9% 29.92 in - East 12.7 mph - N/A   Unknown
1:00 PM 96.8 °F 28.4 °F 9% 29.89 in - SE 11.5 mph - N/A   Unknown
2:00 PM 98.6 °F 30.2 °F 9% 29.86 in - East 11.5 mph - N/A   Unknown
3:00 PM 98 °F 29 °F 4% 29.85 in - SE 9.2 mph - -  
3:00 PM 96.8 °F 28.4 °F 9% 29.86 in - SE 9.2 mph - N/A   Unknown
4:00 PM 96.8 °F 30.2 °F 10% 29.86 in - ESE 10.4 mph - N/A   Unknown
5:00 PM 93.2 °F 32.0 °F 11% 29.86 in - ESE 9.2 mph - N/A   Unknown
6:00 PM 86 °F 31 °F 7% 29.88 in - SE 5.8 mph - -  
6:00 PM 86.0 °F 32.0 °F 14% 29.89 in - SE 5.8 mph - N/A   Unknown
7:00 PM 80.6 °F 32.0 °F 17% 29.89 in - SE 6.9 mph - N/A   Unknown
8:00 PM 80.6 °F 33.8 °F 18% 29.92 in - SE 8.1 mph - N/A   Unknown
9:00 PM 82 °F 33 °F 9% 29.93 in - SE 8.1 mph - -  
9:00 PM 82.4 °F 32.0 °F 16% 29.92 in - SE 8.1 mph - N/A   Unknown
10:00 PM 82.4 °F 32.0 °F 16% 29.92 in - SE 10.4 mph - N/A   Unknown
11:00 PM 80.6 °F 32.0 °F 17% 29.92 in - SE 11.5 mph - N/A   Unknown